Location: Berlise
(49.6641°N, 4.1077°E)
Time: 02:04:08
(UTC+00:00)

Cosmos 1328 - Pass Details

Date: 27 January 2021
Orbit: 528 x 555 km, 82.5° (Epoch: 28 February)

Event Time Altitude Azimuth Distance (km) Brightness Sun altitude
Exits shadow 04:47:01 59° 82° (E) 616 4.2 -25.1°
Drops below altitude 10° 04:50:49 10° 158° (SSE) 1,771 6.6 -24.4°
Sets 04:52:58 0° 163° (SSE) 2,655 7.5 -24.1°
